Погода в Телятове

Россия / Тверская область     58°23′36″N   37°17′32″E
темп.,
°C
ветер,
м/с
пор.,
м/с
влажн.,
%
обл.,
%
осадки,
мм/ч
давл.,
гПа
погр.,
м
15 апреля, чт
чт1500:00+7с499274 1.2 1021414
03:00+5ссв41088100 1.3 1021469
06:00+4ссв398999 0.0 1022438
09:00+6ссв5979100 0.0 1023587
12:00+7св5970100 0.0 1024732
15:00+6св41182100 1.7 1025698
18:00+7св4107398 0.4 1025836
21:00+6св51174100 0.4 1026623
16 апреля, пт
пт1600:00+4всв5127881 0.0 1027515
03:00+3всв4128274 0.0 1027462
06:00+2всв41283100 0.0 1028449
09:00+4всв5117076 0.0 1028516
12:00+8в695598 0.0 1029812
15:00+10всв584253 0.0 10281069
18:00+10всв494766 0.0 1028922
21:00+6всв4126352 0.0 1030425
17 апреля, сб
сб1700:00+4всв4137336 0.0 1030376
03:00+2всв311805 0.0 1031301
06:00+1всв3118451 0.0 1031288
09:00+6в510605 0.0 1032598
12:00+10в58465 0.0 10311013
15:00+11в57405 0.0 10301239
18:00+11всв37485 0.0 1030943
21:00+5св29720 0.0 1030196
18 апреля, вс
вс1800:00+3всв28810 0.0 1030160
03:00+2всв28870 0.0 1031151
06:00+1всв28860 0.0 1031185
09:00+7всв486076 0.0 1031579
12:00+9всв4749100 0.0 10311053
15:00+11всв4644100 0.0 10301329
18:00+10всв3752100 0.0 1030638
21:00+6всв287098 0.0 1030169
19 апреля, пн
пн1900:00+4всв267899 0.0 1031127
03:00+3в2891100 0.0 1032202
06:00+3в2790100 0.0 1032216
09:00+5в3669100 0.0 1032469
12:00+7в4653100 0.0 1032852
15:00+8в4541100 0.0 1032999
18:00+8в354447 0.0 1031895
21:00+3в22615 0.0 103241